User: anonymous   Login
Location: Beaurecueil
(43.5122°N, 5.5450°E)
Time: 17:28:10
(UTC+00:00)
Language:

Meteor 1-24 Rocket - Orbit

View from above orbital plane
View from above orbital plane
View from above satellite
View from above satellite

Ground track
Ground track

The orbit data is extracted from the following two-line orbital elements,

1 08800U 76032B   20337.56082409 -.00000025  00000-0 -20173-4 0  9999
2 08800  81.2524  67.2479 0093942 204.7323 154.9331 14.10152007296175
Epoch (UTC): 02 December 2020 13:27:35
Eccentricity: 0.0093942
inclination: 81.2524°
perigee height: 791 km
apogee height: 927 km
right ascension of ascending node: 67.2479°
argument of perigee: 204.7323°
revolutions per day: 14.10152007
mean anomaly at epoch: 154.9331°
orbit number at epoch: 29617

The dashed part of the orbit path shows where the satellite is in the earth's shadow,  

DLR